| time (UTC) | temp F | wind direction | speed MPH | gust MPH | rain 1hr in | rain 24hr in | rain mn in | humidity % | barometer mb |
| 20260906230524 | 98 | 155 | 2.0 | 9.0 | 0.00 | 0.00 | 0.00 | 39 | 1011.2 |
| 20260906230042 | 98 | 163 | 2.0 | 9.0 | 0.00 | 0.00 | 0.00 | 38 | 1011.3 |
| 20260906225521 | 98 | 183 | 1.0 | 11.0 | 0.00 | 0.00 | 0.00 | 38 | 1011.3 |
| 20260906225025 | 99 | 181 | 4.0 | 11.0 | 0.00 | 0.00 | 0.00 | 38 | 1011.4 |
| 20260906224549 | 99 | 190 | 2.0 | 10.0 | 0.00 | 0.00 | 0.00 | 38 | 1011.4 |
| 20260906224027 | 99 | 161 | 2.0 | 10.0 | 0.00 | 0.00 | 0.00 | 38 | 1011.4 |
| 20260906223524 | 99 | 50 | 2.0 | 6.0 | 0.00 | 0.00 | 0.00 | 38 | 1011.5 |
| 20260906223048 | 100 | 171 | 2.0 | 9.0 | 0.00 | 0.00 | 0.00 | 37 | 1011.4 |
| 20260906222525 | 100 | 128 | 2.0 | 9.0 | 0.00 | 0.00 | 0.00 | 37 | 1011.5 |
| 20260906222025 | 101 | 153 | 3.0 | 9.0 | 0.00 | 0.00 | 0.00 | 36 | 1011.5 |
| 20260906221557 | 101 | 111 | 2.0 | 9.0 | 0.00 | 0.00 | 0.00 | 37 | 1011.5 |
| 20260906221024 | 101 | 158 | 2.0 | 8.0 | 0.00 | 0.00 | 0.00 | 37 | 1011.5 |
| 20260906220524 | 101 | 0 | 1.0 | 6.0 | 0.00 | 0.00 | 0.00 | 38 | 1011.4 |
| 20260906220046 | 100 | 0 | 1.0 | 11.0 | 0.00 | 0.00 | 0.00 | 36 | 1011.4 |
| 20260906215521 | 100 | 194 | 4.0 | 11.0 | 0.00 | 0.00 | 0.00 | 36 | 1011.4 |
| 20260906215020 | 101 | 143 | 2.0 | 10.0 | 0.00 | 0.00 | 0.00 | 36 | 1011.3 |
| 20260906214543 | 101 | 170 | 1.0 | 13.0 | 0.00 | 0.00 | 0.00 | 37 | 1011.4 |
| 20260906214022 | 101 | 160 | 4.0 | 13.0 | 0.00 | 0.00 | 0.00 | 38 | 1011.5 |
| 20260906213524 | 101 | 118 | 3.0 | 9.0 | 0.00 | 0.00 | 0.00 | 36 | 1011.5 |
| 20260906213056 | 101 | 142 | 3.0 | 9.0 | 0.00 | 0.00 | 0.00 | 35 | 1011.6 |
| 20260906212524 | 101 | 65 | 1.0 | 9.0 | 0.00 | 0.00 | 0.00 | 36 | 1011.7 |
| 20260906212024 | 101 | 120 | 4.0 | 9.0 | 0.00 | 0.00 | 0.00 | 37 | 1011.8 |
| 20260906211545 | 101 | 110 | 2.0 | 12.0 | 0.00 | 0.00 | 0.00 | 37 | 1011.8 |
| 20260906211021 | 101 | 153 | 3.0 | 12.0 | 0.00 | 0.00 | 0.00 | 36 | 1011.9 |
| 20260906210524 | 101 | 150 | 3.0 | 12.0 | 0.00 | 0.00 | 0.00 | 36 | 1011.9 |
| 20260906210045 | 101 | 113 | 4.0 | 12.0 | 0.00 | 0.00 | 0.00 | 36 | 1012.1 |
| 20260906205519 | 101 | 242 | 2.0 | 8.0 | 0.00 | 0.00 | 0.00 | 36 | 1012.1 |
| 20260906205021 | 101 | 180 | 2.0 | 10.0 | 0.00 | 0.00 | 0.00 | 37 | 1012.3 |
| 20260906204559 | 101 | 102 | 4.0 | 10.0 | 0.00 | 0.00 | 0.00 | 36 | 1012.4 |
| 20260906204024 | 101 | 212 | 3.0 | 11.0 | 0.00 | 0.00 | 0.00 | 38 | 1012.4 |
| 20260906203525 | 100 | 204 | 3.0 | 11.0 | 0.00 | 0.00 | 0.00 | 38 | 1012.5 |
| 20260906203045 | 100 | 159 | 3.0 | 10.0 | 0.00 | 0.00 | 0.00 | 40 | 1012.6 |
| 20260906202524 | 99 | 169 | 4.0 | 14.0 | 0.00 | 0.00 | 0.00 | 39 | 1012.7 |
| 20260906202026 | 99 | 123 | 4.0 | 14.0 | 0.00 | 0.00 | 0.00 | 39 | 1012.8 |
| 20260906201601 | 98 | 95 | 3.0 | 12.0 | 0.00 | 0.00 | 0.00 | 40 | 1012.8 |
| 20260906201023 | 98 | 90 | 6.0 | 12.0 | 0.00 | 0.00 | 0.00 | 41 | 1012.8 |
| 20260906200524 | 97 | 117 | 4.0 | 11.0 | 0.00 | 0.00 | 0.00 | 42 | 1012.8 |
| 20260906200043 | 97 | 195 | 3.0 | 11.0 | 0.00 | 0.00 | 0.00 | 43 | 1012.9 |
| 20260906195522 | 96 | 94 | 5.0 | 12.0 | 0.00 | 0.00 | 0.00 | 43 | 1012.9 |
| 20260906195023 | 97 | 147 | 4.0 | 12.0 | 0.00 | 0.00 | 0.00 | 42 | 1013.0 |
| 20260906194549 | 99 | 91 | 4.0 | 11.0 | 0.00 | 0.00 | 0.00 | 41 | 1013.0 |
| 20260906194024 | 99 | 84 | 2.0 | 11.0 | 0.00 | 0.00 | 0.00 | 40 | 1013.1 |
| 20260906193524 | 98 | 171 | 5.0 | 11.0 | 0.00 | 0.00 | 0.00 | 42 | 1013.0 |
| 20260906193047 | 98 | 32 | 1.0 | 9.0 | 0.00 | 0.00 | 0.00 | 43 | 1013.1 |
| 20260906192523 | 96 | 171 | 4.0 | 11.0 | 0.00 | 0.00 | 0.00 | 44 | 1013.2 |
| 20260906192025 | 96 | 113 | 5.0 | 13.0 | 0.00 | 0.00 | 0.00 | 45 | 1013.3 |
| 20260906191544 | 96 | 106 | 3.0 | 13.0 | 0.00 | 0.00 | 0.00 | 45 | 1013.4 |
| 20260906191026 | 97 | 139 | 2.0 | 7.0 | 0.00 | 0.00 | 0.00 | 45 | 1013.4 |
| 20260906190523 | 98 | 159 | 3.0 | 8.0 | 0.00 | 0.00 | 0.00 | 44 | 1013.4 |
| 20260906190049 | 97 | 89 | 2.0 | 12.0 | 0.00 | 0.00 | 0.00 | 45 | 1013.5 |
| 20260906185525 | 97 | 105 | 4.0 | 12.0 | 0.00 | 0.00 | 0.00 | 44 | 1013.6 |
| 20260906185027 | 97 | 88 | 2.0 | 11.0 | 0.00 | 0.00 | 0.00 | 44 | 1013.6 |
| 20260906184554 | 98 | 107 | 3.0 | 11.0 | 0.00 | 0.00 | 0.00 | 43 | 1013.6 |
| 20260906184024 | 99 | 149 | 3.0 | 11.0 | 0.00 | 0.00 | 0.00 | 42 | 1013.7 |
| 20260906183525 | 97 | 142 | 3.0 | 11.0 | 0.00 | 0.00 | 0.00 | 44 | 1013.7 |
| 20260906183045 | 98 | 176 | 3.0 | 13.0 | 0.00 | 0.00 | 0.00 | 43 | 1013.8 |
| 20260906182523 | 99 | 178 | 6.0 | 13.0 | 0.00 | 0.00 | 0.00 | 42 | 1013.8 |
| 20260906182024 | 99 | 28 | 3.0 | 9.0 | 0.00 | 0.00 | 0.00 | 43 | 1013.9 |
| 20260906181545 | 99 | 196 | 3.0 | 11.0 | 0.00 | 0.00 | 0.00 | 43 | 1013.9 |
| 20260906181022 | 99 | 227 | 2.0 | 11.0 | 0.00 | 0.00 | 0.00 | 43 | 1014.0 |
| 20260906180528 | 99 | 171 | 2.0 | 10.0 | 0.00 | 0.00 | 0.00 | 44 | 1014.1 |
| 20260906180101 | 99 | 209 | 2.0 | 9.0 | 0.00 | 0.00 | 0.00 | 44 | 1014.2 |
| 20260906175525 | 98 | 169 | 2.0 | 8.0 | 0.00 | 0.00 | 0.00 | 45 | 1014.3 |
| 20260906175024 | 98 | 157 | 3.0 | 10.0 | 0.00 | 0.00 | 0.00 | 45 | 1014.3 |
| 20260906174545 | 98 | 146 | 2.0 | 10.0 | 0.00 | 0.00 | 0.00 | 45 | 1014.4 |
| 20260906174021 | 98 | 202 | 1.0 | 6.0 | 0.00 | 0.00 | 0.00 | 47 | 1014.5 |
| 20260906173523 | 97 | 99 | 1.0 | 7.0 | 0.00 | 0.00 | 0.00 | 45 | 1014.6 |
| 20260906173045 | 97 | 198 | 2.0 | 8.0 | 0.00 | 0.00 | 0.00 | 46 | 1014.8 |
| 20260906172524 | 97 | 171 | 1.0 | 10.0 | 0.00 | 0.00 | 0.00 | 46 | 1014.9 |
| 20260906172023 | 96 | 145 | 2.0 | 10.0 | 0.00 | 0.00 | 0.00 | 46 | 1014.9 |
| 20260906171554 | 95 | 94 | 2.0 | 9.0 | 0.00 | 0.00 | 0.00 | 48 | 1015.0 |
| 20260906171023 | 94 | 146 | 3.0 | 9.0 | 0.00 | 0.00 | 0.00 | 50 | 1015.0 |
| 20260906170524 | 95 | 117 | 4.0 | 9.0 | 0.00 | 0.00 | 0.00 | 47 | 1015.0 |
| 20260906170056 | 96 | 217 | 2.0 | 7.0 | 0.00 | 0.00 | 0.00 | 48 | 1015.0 |
| 20260906165525 | 95 | 142 | 1.0 | 8.0 | 0.00 | 0.00 | 0.00 | 50 | 1014.9 |
| 20260906165024 | 95 | 346 | 2.0 | 8.0 | 0.00 | 0.00 | 0.00 | 50 | 1015.0 |
| 20260906164546 | 94 | 176 | 2.0 | 8.0 | 0.00 | 0.00 | 0.00 | 52 | 1015.0 |
| 20260906164023 | 94 | 142 | 2.0 | 7.0 | 0.00 | 0.00 | 0.00 | 51 | 1015.0 |
| 20260906163524 | 94 | 0 | 2.0 | 9.0 | 0.00 | 0.00 | 0.00 | 52 | 1015.0 |
| 20260906163045 | 93 | 207 | 1.0 | 9.0 | 0.00 | 0.00 | 0.00 | 53 | 1015.0 |
| 20260906162524 | 93 | 338 | 2.0 | 8.0 | 0.00 | 0.00 | 0.00 | 53 | 1015.0 |
| 20260906162024 | 93 | 149 | 2.0 | 8.0 | 0.00 | 0.00 | 0.00 | 52 | 1015.0 |
| 20260906161548 | 93 | 193 | 1.0 | 8.0 | 0.00 | 0.00 | 0.00 | 53 | 1014.9 |
| 20260906161023 | 92 | 165 | 1.0 | 8.0 | 0.00 | 0.00 | 0.00 | 55 | 1014.8 |
| 20260906160525 | 92 | 128 | 2.0 | 8.0 | 0.00 | 0.00 | 0.00 | 55 | 1014.8 |
| 20260906160050 | 92 | 218 | 2.0 | 8.0 | 0.00 | 0.00 | 0.00 | 55 | 1014.8 |
| 20260906155530 | 92 | 171 | 2.0 | 8.0 | 0.00 | 0.00 | 0.00 | 58 | 1014.8 |
| 20260906155025 | 91 | 180 | 2.0 | 6.0 | 0.00 | 0.00 | 0.00 | 59 | 1014.8 |
| 20260906154547 | 91 | 205 | 2.0 | 6.0 | 0.00 | 0.00 | 0.00 | 60 | 1014.8 |
| 20260906154025 | 91 | 198 | 2.0 | 6.0 | 0.00 | 0.00 | 0.00 | 62 | 1014.8 |
| 20260906153528 | 90 | 137 | 1.0 | 6.0 | 0.00 | 0.00 | 0.00 | 64 | 1014.7 |
| 20260906153042 | 90 | 209 | 2.0 | 7.0 | 0.00 | 0.00 | 0.00 | 65 | 1014.7 |
| 20260906152525 | 89 | 78 | 2.0 | 7.0 | 0.00 | 0.00 | 0.00 | 65 | 1014.7 |
| 20260906152024 | 89 | 138 | 1.0 | 7.0 | 0.00 | 0.00 | 0.00 | 65 | 1014.7 |
| 20260906151547 | 89 | 169 | 2.0 | 6.0 | 0.00 | 0.00 | 0.00 | 66 | 1014.6 |
| 20260906151026 | 89 | 215 | 0.0 | 4.0 | 0.00 | 0.00 | 0.00 | 67 | 1014.5 |
| 20260906150524 | 88 | 140 | 2.0 | 7.0 | 0.00 | 0.00 | 0.00 | 67 | 1014.5 |
| 20260906150046 | 88 | 159 | 1.0 | 8.0 | 0.00 | 0.00 | 0.00 | 69 | 1014.6 |
| 20260906145524 | 87 | 93 | 1.0 | 8.0 | 0.00 | 0.00 | 0.00 | 69 | 1014.6 |
| 20260906145023 | 87 | 97 | 2.0 | 7.0 | 0.00 | 0.00 | 0.00 | 70 | 1014.6 |
| 20260906144544 | 86 | 127 | 1.0 | 4.0 | 0.00 | 0.00 | 0.00 | 70 | 1014.6 |
| 20260906144023 | 86 | 188 | 1.0 | 4.0 | 0.00 | 0.00 | 0.00 | 71 | 1014.6 |
| 20260906143523 | 86 | 97 | 1.0 | 5.0 | 0.00 | 0.00 | 0.00 | 71 | 1014.7 |
| 20260906143050 | 86 | 31 | 0.0 | 5.0 | 0.00 | 0.00 | 0.00 | 72 | 1014.7 |
| 20260906142524 | 86 | 138 | 1.0 | 5.0 | 0.00 | 0.00 | 0.00 | 73 | 1014.7 |
| 20260906142024 | 85 | 0 | 1.0 | 4.0 | 0.00 | 0.00 | 0.00 | 74 | 1014.7 |
| 20260906141544 | 84 | 161 | 1.0 | 4.0 | 0.00 | 0.00 | 0.00 | 75 | 1014.7 |
| 20260906141051 | 84 | 118 | 1.0 | 4.0 | 0.00 | 0.00 | 0.00 | 75 | 1014.6 |
| 20260906140524 | 84 | 94 | 1.0 | 5.0 | 0.00 | 0.00 | 0.00 | 76 | 1014.6 |
| 20260906140043 | 83 | 0 | 1.0 | 5.0 | 0.00 | 0.00 | 0.00 | 76 | 1014.6 |
| 20260906135528 | 83 | 167 | 0.0 | 3.0 | 0.00 | 0.00 | 0.00 | 77 | 1014.6 |
| 20260906135026 | 82 | 107 | 1.0 | 3.0 | 0.00 | 0.00 | 0.00 | 78 | 1014.5 |
| 20260906134542 | 82 | 0 | 1.0 | 3.0 | 0.00 | 0.00 | 0.00 | 78 | 1014.5 |
| 20260906134026 | 82 | 0 | 0.0 | 2.0 | 0.00 | 0.00 | 0.00 | 79 | 1014.4 |
| 20260906133521 | 81 | 79 | 0.0 | 3.0 | 0.00 | 0.00 | 0.00 | 80 | 1014.5 |
| 20260906133049 | 81 | 0 | 0.0 | 3.0 | 0.00 | 0.00 | 0.00 | 81 | 1014.6 |
| 20260906132527 | 81 | 0 | 0.0 | 2.0 | 0.00 | 0.00 | 0.00 | 82 | 1014.6 |
| 20260906132025 | 80 | 88 | 0.0 | 2.0 | 0.00 | 0.00 | 0.00 | 82 | 1014.6 |
| 20260906131547 | 80 | 0 | 0.0 | 2.0 | 0.00 | 0.00 | 0.00 | 83 | 1014.6 |
| 20260906131024 | 80 | 82 | 0.0 | 2.0 | 0.00 | 0.00 | 0.00 | 84 | 1014.6 |
| 20260906130524 | 79 | 174 | 0.0 | 2.0 | 0.00 | 0.00 | 0.00 | 85 | 1014.5 |
| 20260906130045 | 79 | 0 | 0.0 | 1.0 | 0.00 | 0.00 | 0.00 | 85 | 1014.3 |
| 20260906125523 | 78 | 0 | 0.0 | 2.0 | 0.00 | 0.00 | 0.00 | 86 | 1014.3 |
| 20260906125023 | 78 | 165 | 0.0 | 2.0 | 0.00 | 0.00 | 0.00 | 86 | 1014.3 |
| 20260906124544 | 78 | 165 | 0.0 | 1.0 | 0.00 | 0.00 | 0.00 | 86 | 1014.3 |
| 20260906124026 | 78 | 0 | 0.0 | 1.0 | 0.00 | 0.00 | 0.00 | 86 | 1014.4 |
| 20260906123523 | 78 | 175 | 0.0 | 1.0 | 0.00 | 0.00 | 0.00 | 86 | 1014.3 |
| 20260906123046 | 77 | 0 | 0.0 | 1.0 | 0.00 | 0.00 | 0.00 | 87 | 1014.2 |
| 20260906122524 | 77 | 0 | 0.0 | 2.0 | 0.00 | 0.00 | 0.00 | 87 | 1014.1 |
| 20260906122020 | 77 | 0 | 0.0 | 2.0 | 0.00 | 0.00 | 0.00 | 87 | 1014.0 |
| 20260906121548 | 77 | 0 | 0.0 | 2.0 | 0.00 | 0.00 | 0.00 | 87 | 1014.1 |
| 20260906121024 | 77 | 0 | 0.0 | 1.0 | 0.00 | 0.00 | 0.00 | 87 | 1014.0 |
| 20260906120523 | 77 | 163 | 0.0 | 1.0 | 0.00 | 0.00 | 0.00 | 86 | 1013.9 |
| 20260906120053 | 77 | 0 | 0.0 | 2.0 | 0.00 | 0.00 | 0.00 | 86 | 1013.8 |
| 20260906115523 | 77 | 0 | 0.0 | 2.0 | 0.00 | 0.00 | 0.00 | 86 | 1013.9 |
| 20260906115023 | 77 | 0 | 0.0 | 1.0 | 0.00 | 0.00 | 0.00 | 85 | 1013.9 |
| 20260906114547 | 77 | 0 | 0.0 | 1.0 | 0.00 | 0.00 | 0.00 | 86 | 1013.8 |
| 20260906114023 | 77 | 0 | 0.0 | 1.0 | 0.00 | 0.00 | 0.00 | 86 | 1013.7 |
| 20260906113526 | 77 | 0 | 0.0 | 1.0 | 0.00 | 0.00 | 0.00 | 85 | 1013.7 |
| 20260906113049 | 77 | 0 | 0.0 | 1.0 | 0.00 | 0.00 | 0.00 | 85 | 1013.7 |
| 20260906112529 | 77 | 0 | 0.0 | 0.0 | 0.00 | 0.00 | 0.00 | 85 | 1013.7 |
| 20260906112025 | 77 | 0 | 0.0 | 1.0 | 0.00 | 0.00 | 0.00 | 85 | 1013.7 |
| 20260906111549 | 77 | 0 | 0.0 | 1.0 | 0.00 | 0.00 | 0.00 | 85 | 1013.7 |
| 20260906111023 | 78 | 0 | 0.0 | 3.0 | 0.00 | 0.00 | 0.00 | 85 | 1013.7 |
| 20260906110524 | 78 | 0 | 0.0 | 3.0 | 0.00 | 0.00 | 0.00 | 85 | 1013.6 |
| 20260906110041 | 78 | 174 | 0.0 | 3.0 | 0.00 | 0.00 | 0.00 | 85 | 1013.6 |
| 20260906105522 | 78 | 0 | 0.0 | 2.0 | 0.00 | 0.00 | 0.00 | 85 | 1013.6 |
| 20260906105021 | 78 | 155 | 0.0 | 1.0 | 0.00 | 0.00 | 0.00 | 84 | 1013.5 |
| 20260906104539 | 78 | 0 | 0.0 | 1.0 | 0.00 | 0.00 | 0.00 | 84 | 1013.4 |
| 20260906104024 | 78 | 0 | 0.0 | 1.0 | 0.00 | 0.00 | 0.00 | 84 | 1013.4 |
| 20260906103524 | 78 | 155 | 0.0 | 1.0 | 0.00 | 0.00 | 0.00 | 84 | 1013.5 |
| 20260906103045 | 78 | 0 | 0.0 | 1.0 | 0.00 | 0.00 | 0.00 | 84 | 1013.5 |
| 20260906102524 | 78 | 155 | 0.0 | 1.0 | 0.00 | 0.00 | 0.00 | 83 | 1013.5 |
| 20260906102026 | 79 | 0 | 0.0 | 1.0 | 0.00 | 0.00 | 0.00 | 83 | 1013.5 |
| 20260906101546 | 78 | 0 | 0.0 | 1.0 | 0.00 | 0.00 | 0.00 | 83 | 1013.4 |
| 20260906101023 | 79 | 0 | 0.0 | 1.0 | 0.00 | 0.00 | 0.00 | 83 | 1013.3 |
| 20260906100526 | 79 | 155 | 0.0 | 1.0 | 0.00 | 0.00 | 0.00 | 82 | 1013.3 |
| 20260906100041 | 79 | 0 | 0.0 | 1.0 | 0.00 | 0.00 | 0.00 | 82 | 1013.4 |
| 20260906095521 | 79 | 0 | 0.0 | 1.0 | 0.00 | 0.00 | 0.00 | 82 | 1013.4 |
| 20260906095021 | 79 | 0 | 0.0 | 0.0 | 0.00 | 0.00 | 0.00 | 82 | 1013.4 |
| 20260906094547 | 79 | 0 | 0.0 | 0.0 | 0.00 | 0.00 | 0.00 | 82 | 1013.3 |
| 20260906094024 | 79 | 0 | 0.0 | 0.0 | 0.00 | 0.00 | 0.00 | 82 | 1013.3 |
| 20260906093527 | 79 | 0 | 0.0 | 0.0 | 0.00 | 0.00 | 0.00 | 81 | 1013.1 |
| 20260906093048 | 79 | 0 | 0.0 | 1.0 | 0.00 | 0.00 | 0.00 | 81 | 1013.1 |
| 20260906092523 | 79 | 0 | 0.0 | 1.0 | 0.00 | 0.00 | 0.00 | 81 | 1013.0 |
| 20260906092025 | 79 | 0 | 0.0 | 1.0 | 0.00 | 0.00 | 0.00 | 81 | 1013.1 |
| 20260906091544 | 79 | 0 | 0.0 | 1.0 | 0.00 | 0.00 | 0.00 | 81 | 1013.0 |
| 20260906091021 | 79 | 155 | 0.0 | 2.0 | 0.00 | 0.00 | 0.00 | 80 | 1013.0 |
| 20260906090521 | 80 | 0 | 0.0 | 2.0 | 0.00 | 0.00 | 0.00 | 80 | 1012.9 |
| 20260906090043 | 80 | 0 | 0.0 | 2.0 | 0.00 | 0.00 | 0.00 | 80 | 1012.9 |
| 20260906085522 | 80 | 180 | 0.0 | 3.0 | 0.00 | 0.00 | 0.00 | 80 | 1012.9 |
| 20260906085026 | 80 | 0 | 0.0 | 3.0 | 0.00 | 0.00 | 0.00 | 79 | 1012.9 |
| 20260906084550 | 80 | 138 | 0.0 | 3.0 | 0.00 | 0.00 | 0.00 | 79 | 1013.0 |
| 20260906084025 | 80 | 171 | 0.0 | 3.0 | 0.00 | 0.00 | 0.00 | 79 | 1012.9 |
| 20260906083524 | 80 | 0 | 0.0 | 4.0 | 0.00 | 0.00 | 0.00 | 78 | 1012.9 |
| 20260906083045 | 80 | 196 | 0.0 | 4.0 | 0.00 | 0.00 | 0.00 | 78 | 1012.8 |
| 20260906082524 | 80 | 155 | 0.0 | 3.0 | 0.00 | 0.00 | 0.00 | 78 | 1012.8 |
| 20260906082024 | 80 | 143 | 1.0 | 3.0 | 0.00 | 0.00 | 0.00 | 77 | 1012.9 |
| 20260906081543 | 80 | 151 | 0.0 | 3.0 | 0.00 | 0.00 | 0.00 | 77 | 1012.8 |
| 20260906081022 | 81 | 0 | 0.0 | 3.0 | 0.00 | 0.00 | 0.00 | 77 | 1012.9 |
| 20260906080523 | 80 | 171 | 0.0 | 3.0 | 0.00 | 0.00 | 0.00 | 77 | 1012.9 |
| 20260906080042 | 81 | 0 | 0.0 | 2.0 | 0.00 | 0.00 | 0.00 | 77 | 1012.9 |
| 20260906075525 | 81 | 0 | 0.0 | 2.0 | 0.00 | 0.00 | 0.00 | 77 | 1013.1 |
| 20260906075024 | 81 | 174 | 0.0 | 2.0 | 0.00 | 0.00 | 0.00 | 76 | 1013.1 |
| 20260906074547 | 81 | 0 | 0.0 | 2.0 | 0.00 | 0.00 | 0.00 | 77 | 1013.1 |
| 20260906074027 | 80 | 225 | 0.0 | 2.0 | 0.00 | 0.00 | 0.00 | 77 | 1013.0 |
| 20260906073524 | 80 | 167 | 0.0 | 1.0 | 0.00 | 0.00 | 0.00 | 77 | 1012.9 |
| 20260906073047 | 80 | 0 | 0.0 | 1.0 | 0.00 | 0.00 | 0.00 | 77 | 1012.9 |
| 20260906072525 | 80 | 0 | 0.0 | 1.0 | 0.00 | 0.00 | 0.00 | 76 | 1012.9 |
| 20260906072024 | 81 | 0 | 0.0 | 1.0 | 0.00 | 0.00 | 0.00 | 75 | 1012.8 |
| 20260906071557 | 81 | 0 | 0.0 | 1.0 | 0.00 | 0.00 | 0.00 | 75 | 1012.9 |
| 20260906071021 | 81 | 0 | 0.0 | 1.0 | 0.00 | 0.00 | 0.00 | 75 | 1013.0 |
| 20260906070524 | 81 | 0 | 0.0 | 1.0 | 0.00 | 0.00 | 0.00 | 74 | 1013.2 |
| 20260906070041 | 81 | 0 | 0.0 | 3.0 | 0.00 | 0.00 | 0.00 | 74 | 1013.3 |
| 20260906065524 | 82 | 0 | 0.0 | 4.0 | 0.00 | 0.00 | 0.00 | 74 | 1013.3 |
| 20260906065025 | 82 | 180 | 0.0 | 4.0 | 0.00 | 0.00 | 0.00 | 73 | 1013.2 |
| 20260906064545 | 82 | 184 | 0.0 | 3.0 | 0.00 | 0.00 | 0.00 | 73 | 1013.1 |
| 20260906064024 | 82 | 0 | 0.0 | 6.0 | 0.00 | 0.00 | 0.00 | 72 | 1013.2 |
| 20260906063523 | 82 | 151 | 1.0 | 6.0 | 0.00 | 0.00 | 0.00 | 72 | 1013.3 |
| 20260906063041 | 82 | 0 | 1.0 | 5.0 | 0.00 | 0.00 | 0.00 | 71 | 1013.1 |
| 20260906062524 | 82 | 168 | 1.0 | 5.0 | 0.00 | 0.00 | 0.00 | 71 | 1013.1 |
| 20260906062025 | 83 | 146 | 0.0 | 4.0 | 0.00 | 0.00 | 0.00 | 70 | 1013.0 |
| 20260906061548 | 83 | 146 | 1.0 | 4.0 | 0.00 | 0.00 | 0.00 | 70 | 1013.2 |
| 20260906061024 | 83 | 0 | 1.0 | 4.0 | 0.00 | 0.00 | 0.00 | 70 | 1013.2 |
| 20260906060524 | 83 | 0 | 1.0 | 3.0 | 0.00 | 0.00 | 0.00 | 69 | 1013.2 |
| 20260906060045 | 83 | 0 | 0.0 | 3.0 | 0.00 | 0.00 | 0.00 | 69 | 1013.2 |
| 20260906055520 | 83 | 169 | 0.0 | 2.0 | 0.00 | 0.00 | 0.00 | 68 | 1013.2 |
| 20260906055024 | 83 | 0 | 0.0 | 3.0 | 0.00 | 0.00 | 0.00 | 68 | 1013.1 |
| 20260906054545 | 83 | 161 | 1.0 | 4.0 | 0.00 | 0.00 | 0.00 | 67 | 1013.1 |
| 20260906054022 | 84 | 171 | 0.0 | 5.0 | 0.00 | 0.00 | 0.00 | 67 | 1013.3 |
| 20260906053523 | 84 | 0 | 1.0 | 5.0 | 0.00 | 0.00 | 0.00 | 67 | 1013.2 |
| 20260906053050 | 84 | 190 | 0.0 | 3.0 | 0.00 | 0.00 | 0.00 | 68 | 1013.1 |
| 20260906052526 | 84 | 159 | 0.0 | 2.0 | 0.00 | 0.00 | 0.00 | 67 | 1013.1 |
| 20260906052026 | 84 | 175 | 0.0 | 2.0 | 0.00 | 0.00 | 0.00 | 67 | 1013.0 |
| 20260906051546 | 84 | 194 | 0.0 | 2.0 | 0.00 | 0.00 | 0.00 | 67 | 1012.9 |
| 20260906051024 | 84 | 0 | 0.0 | 3.0 | 0.00 | 0.00 | 0.00 | 66 | 1012.9 |
| 20260906050526 | 84 | 218 | 0.0 | 4.0 | 0.00 | 0.00 | 0.00 | 66 | 1013.0 |
| 20260906050045 | 85 | 180 | 0.0 | 5.0 | 0.00 | 0.00 | 0.00 | 66 | 1013.0 |
| 20260906045520 | 84 | 0 | 1.0 | 5.0 | 0.00 | 0.00 | 0.00 | 66 | 1013.0 |
| 20260906045022 | 85 | 161 | 0.0 | 8.0 | 0.00 | 0.00 | 0.00 | 65 | 1013.0 |
| 20260906044543 | 85 | 167 | 1.0 | 8.0 | 0.00 | 0.00 | 0.00 | 65 | 1013.1 |
| 20260906044020 | 85 | 187 | 2.0 | 8.0 | 0.00 | 0.00 | 0.00 | 65 | 1013.1 |
| 20260906043524 | 85 | 164 | 1.0 | 6.0 | 0.00 | 0.00 | 0.00 | 65 | 1013.1 |
| 20260906043046 | 85 | 178 | 1.0 | 6.0 | 0.00 | 0.00 | 0.00 | 66 | 1013.1 |
| 20260906042524 | 85 | 142 | 1.0 | 5.0 | 0.00 | 0.00 | 0.00 | 66 | 1013.1 |
| 20260906042024 | 85 | 147 | 1.0 | 9.0 | 0.00 | 0.00 | 0.00 | 66 | 1013.1 |
| 20260906041544 | 85 | 188 | 1.0 | 9.0 | 0.00 | 0.00 | 0.00 | 65 | 1013.1 |
| 20260906041026 | 85 | 168 | 1.0 | 5.0 | 0.00 | 0.00 | 0.00 | 66 | 1013.1 |
| 20260906040523 | 85 | 151 | 0.0 | 2.0 | 0.00 | 0.00 | 0.00 | 66 | 1013.1 |
| 20260906040043 | 85 | 168 | 0.0 | 5.0 | 0.00 | 0.00 | 0.00 | 65 | 1013.1 |
| 20260906035522 | 85 | 153 | 0.0 | 5.0 | 0.00 | 0.00 | 0.00 | 65 | 1013.1 |
| 20260906035024 | 85 | 175 | 1.0 | 4.0 | 0.00 | 0.00 | 0.00 | 65 | 1013.1 |
| 20260906034546 | 86 | 144 | 1.0 | 5.0 | 0.00 | 0.00 | 0.00 | 65 | 1013.1 |
| 20260906034025 | 86 | 152 | 1.0 | 5.0 | 0.00 | 0.00 | 0.00 | 65 | 1013.0 |
| 20260906033521 | 86 | 190 | 1.0 | 5.0 | 0.00 | 0.00 | 0.00 | 64 | 1013.1 |
| 20260906033046 | 86 | 0 | 1.0 | 6.0 | 0.00 | 0.00 | 0.00 | 64 | 1013.0 |
| 20260906032523 | 86 | 181 | 2.0 | 6.0 | 0.00 | 0.00 | 0.00 | 64 | 1013.1 |
| 20260906032023 | 86 | 153 | 1.0 | 8.0 | 0.00 | 0.00 | 0.00 | 64 | 1013.2 |
| 20260906031542 | 86 | 200 | 1.0 | 8.0 | 0.00 | 0.00 | 0.00 | 64 | 1013.2 |
| 20260906031019 | 86 | 185 | 1.0 | 6.0 | 0.00 | 0.00 | 0.00 | 64 | 1013.2 |
| 20260906030523 | 86 | 0 | 0.0 | 5.0 | 0.00 | 0.00 | 0.00 | 64 | 1013.1 |
| 20260906030039 | 87 | 178 | 1.0 | 7.0 | 0.00 | 0.00 | 0.00 | 63 | 1013.1 |
| 20260906025527 | 87 | 223 | 1.0 | 8.0 | 0.00 | 0.00 | 0.00 | 63 | 1013.2 |
| 20260906025025 | 87 | 212 | 1.0 | 8.0 | 0.00 | 0.00 | 0.00 | 63 | 1013.2 |
| 20260906024559 | 87 | 205 | 2.0 | 8.0 | 0.00 | 0.00 | 0.00 | 62 | 1013.2 |
| 20260906024021 | 87 | 157 | 2.0 | 8.0 | 0.00 | 0.00 | 0.00 | 62 | 1013.1 |
| 20260906023524 | 87 | 173 | 2.0 | 8.0 | 0.00 | 0.00 | 0.00 | 62 | 1012.9 |
| 20260906023042 | 87 | 209 | 2.0 | 8.0 | 0.00 | 0.00 | 0.00 | 61 | 1012.8 |
| 20260906022519 | 87 | 121 | 1.0 | 8.0 | 0.00 | 0.00 | 0.00 | 61 | 1012.8 |
| 20260906022021 | 87 | 167 | 2.0 | 8.0 | 0.00 | 0.00 | 0.00 | 61 | 1012.7 |
| 20260906021540 | 87 | 188 | 1.0 | 8.0 | 0.00 | 0.00 | 0.00 | 60 | 1012.7 |
| 20260906021021 | 87 | 126 | 2.0 | 8.0 | 0.00 | 0.00 | 0.00 | 60 | 1012.7 |
| 20260906020524 | 88 | 159 | 1.0 | 7.0 | 0.00 | 0.00 | 0.00 | 59 | 1012.6 |
| 20260906020049 | 88 | 167 | 2.0 | 8.0 | 0.00 | 0.00 | 0.00 | 59 | 1012.4 |
| 20260906015524 | 88 | 167 | 1.0 | 8.0 | 0.00 | 0.00 | 0.00 | 59 | 1012.3 |
| 20260906015024 | 88 | 208 | 1.0 | 4.0 | 0.00 | 0.00 | 0.00 | 58 | 1012.4 |
| 20260906014559 | 88 | 216 | 1.0 | 8.0 | 0.00 | 0.00 | 0.00 | 58 | 1012.4 |
| 20260906014028 | 89 | 163 | 2.0 | 11.0 | 0.00 | 0.00 | 0.00 | 57 | 1012.4 |
| 20260906013521 | 89 | 126 | 3.0 | 11.0 | 0.00 | 0.00 | 0.00 | 56 | 1012.3 |
| 20260906013102 | 89 | 158 | 3.0 | 11.0 | 0.00 | 0.00 | 0.00 | 56 | 1012.1 |
| 20260906012524 | 90 | 193 | 3.0 | 11.0 | 0.00 | 0.00 | 0.00 | 54 | 1012.1 |
| 20260906012022 | 91 | 166 | 3.0 | 11.0 | 0.00 | 0.00 | 0.00 | 53 | 1011.9 |
| 20260906011546 | 91 | 165 | 3.0 | 13.0 | 0.00 | 0.00 | 0.00 | 52 | 1011.7 |
| 20260906011025 | 92 | 196 | 3.0 | 13.0 | 0.00 | 0.00 | 0.00 | 51 | 1011.6 |
| 20260906010525 | 92 | 165 | 4.0 | 14.0 | 0.00 | 0.00 | 0.00 | 50 | 1011.5 |
| 20260906010048 | 93 | 166 | 5.0 | 14.0 | 0.00 | 0.00 | 0.00 | 49 | 1011.5 |
| 20260906005525 | 93 | 161 | 4.0 | 12.0 | 0.00 | 0.00 | 0.00 | 48 | 1011.5 |
| 20260906005028 | 94 | 175 | 3.0 | 11.0 | 0.00 | 0.00 | 0.00 | 47 | 1011.4 |
| 20260906004544 | 94 | 164 | 3.0 | 11.0 | 0.00 | 0.00 | 0.00 | 46 | 1011.3 |
| 20260906004026 | 95 | 176 | 3.0 | 10.0 | 0.00 | 0.00 | 0.00 | 44 | 1011.2 |
| 20260906003528 | 95 | 181 | 2.0 | 9.0 | 0.00 | 0.00 | 0.00 | 43 | 1011.2 |
| 20260906003050 | 95 | 146 | 2.0 | 9.0 | 0.00 | 0.00 | 0.00 | 43 | 1011.2 |
| 20260906002524 | 95 | 169 | 2.0 | 7.0 | 0.00 | 0.00 | 0.00 | 43 | 1011.2 |
| 20260906002025 | 95 | 196 | 2.0 | 5.0 | 0.00 | 0.00 | 0.00 | 42 | 1011.3 |
| 20260906001548 | 96 | 176 | 1.0 | 6.0 | 0.00 | 0.00 | 0.00 | 43 | 1011.2 |
| 20260906001025 | 96 | 175 | 2.0 | 6.0 | 0.00 | 0.00 | 0.00 | 42 | 1011.2 |
| 20260906000526 | 96 | 180 | 1.0 | 6.0 | 0.00 | 0.00 | 0.00 | 41 | 1011.2 |
| 20260906000048 | 96 | 145 | 1.0 | 8.0 | 0.00 | 0.00 | 0.00 | 41 | 1011.2 |
| 20260905235524 | 96 | 160 | 2.0 | 8.0 | 0.00 | 0.00 | 0.00 | 41 | 1011.2 |
| 20260905235024 | 96 | 0 | 1.0 | 5.0 | 0.00 | 0.00 | 0.00 | 41 | 1011.1 |
| 20260905234545 | 96 | 171 | 2.0 | 8.0 | 0.00 | 0.00 | 0.00 | 41 | 1011.0 |
| 20260905234024 | 97 | 137 | 1.0 | 9.0 | 0.00 | 0.00 | 0.00 | 41 | 1010.9 |
| 20260905233524 | 97 | 107 | 2.0 | 9.0 | 0.00 | 0.00 | 0.00 | 41 | 1011.0 |
| 20260905233047 | 97 | 181 | 2.0 | 7.0 | 0.00 | 0.00 | 0.00 | 40 | 1011.0 |
| 20260905232526 | 98 | 192 | 1.0 | 7.0 | 0.00 | 0.00 | 0.00 | 40 | 1011.0 |
| 20260905232026 | 98 | 139 | 2.0 | 7.0 | 0.00 | 0.00 | 0.00 | 39 | 1011.0 |
| 20260905231545 | 98 | 150 | 2.0 | 7.0 | 0.00 | 0.00 | 0.00 | 38 | 1011.1 |
| 20260905231023 | 98 | 84 | 2.0 | 6.0 | 0.00 | 0.00 | 0.00 | 38 | 1011.0 |